Location: Izdebno
(52.6670°N, 16.2170°E)
Time: 19:13:49
(UTC+02:00)

SR - Pass Details

Date: 25 February 2024
Orbit: 577 x 862 km, 66.7° (Epoch: 21 April)

Event Time Altitude Azimuth Distance (km) Brightness Sun altitude
Rises 22:54:18 0° 320° (NW) 3,283 ? -43.8°
Reaches altitude 10° 22:56:50 10° 322° (NW) 2,306 ? -44.0°
Enters shadow 22:57:00 11° 322° (NW) 2,240 ? -44.0°
Maximum altitude 23:02:06 76° 48° (NE) 742 - -44.3°
Drops below altitude 10° 23:06:53 10° 135° (SE) 2,100 - -44.6°
Sets 23:09:05 0° 137° (SE) 2,964 - -44.7°
